Time,TemperatureF,DewpointF,PressureIn,WindDirection,WindDirectionDegrees,WindSpeedMPH,WindSpeedGustMPH,Humidity,HourlyPrecipIn,Conditions,Clouds,dailyrainin,SoftwareType,DateUTC
2013-02-14 00:00:00,37.0,29.5,29.89,SSW,202,0.0,2.5,74,0.00,,,0.00,WUHU21623XXSP,2013-02-14 06:00:00,
2013-02-14 00:05:00,37.0,29.5,29.89,SSW,202,0.0,0.0,74,0.00,,,0.00,WUHU21623XXSP,2013-02-14 06:05:00,
2013-02-14 00:10:00,37.0,29.5,29.88,SSW,202,1.8,2.0,74,0.00,,,0.00,WUHU21623XXSP,2013-02-14 06:10:00,
2013-02-14 00:15:00,37.0,29.5,29.89,SSW,202,0.0,4.7,74,0.00,,,0.00,WUHU21623XXSP,2013-02-14 06:15:00,
2013-02-14 00:20:00,37.0,29.5,29.89,SSW,202,0.0,4.7,74,0.00,,,0.00,WUHU21623XXSP,2013-02-14 06:20:00,
2013-02-14 00:25:00,36.9,29.3,29.88,South,185,2.3,3.6,74,0.00,,,0.00,WUHU21623XXSP,2013-02-14 06:25:00,
2013-02-14 00:30:00,36.7,29.2,29.89,SSW,202,1.3,3.6,74,0.00,,,0.00,WUHU21623XXSP,2013-02-14 06:30:00,
2013-02-14 00:35:00,36.7,29.2,29.89,SSW,202,0.0,1.8,74,0.00,,,0.00,WUHU21623XXSP,2013-02-14 06:35:00,
2013-02-14 00:40:00,36.9,29.3,29.88,SSW,202,0.0,0.0,74,0.00,,,0.00,WUHU21623XXSP,2013-02-14 06:40:00,
2013-02-14 00:45:00,37.0,29.8,29.88,SSW,202,0.0,0.0,75,0.00,,,0.00,WUHU21623XXSP,2013-02-14 06:45:00,
2013-02-14 00:50:00,37.0,29.8,29.89,SSW,202,0.0,0.0,75,0.00,,,0.00,WUHU21623XXSP,2013-02-14 06:50:00,
2013-02-14 00:55:00,36.9,29.3,29.89,SSW,202,0.0,0.0,74,0.00,,,0.00,WUHU21623XXSP,2013-02-14 06:55:00,
2013-02-14 01:00:00,36.7,29.2,29.89,SSW,202,0.0,0.0,74,0.00,,,0.00,WUHU21623XXSP,2013-02-14 07:00:00,
2013-02-14 01:05:00,36.5,29.0,29.89,SSW,202,0.0,0.0,74,0.00,,,0.00,WUHU21623XXSP,2013-02-14 07:05:00,
2013-02-14 01:10:00,36.3,28.8,29.89,SSW,202,0.0,0.0,74,0.00,,,0.00,WUHU21623XXSP,2013-02-14 07:10:00,
2013-02-14 01:16:00,36.3,28.8,29.89,SSW,202,0.0,0.0,74,0.00,,,0.00,WUHU21623XXSP,2013-02-14 07:16:00,
2013-02-14 01:21:00,36.1,28.6,29.89,SSW,202,0.0,0.0,74,0.00,,,0.00,WUHU21623XXSP,2013-02-14 07:21:00,
2013-02-14 01:26:00,36.1,28.6,29.89,SSW,202,0.0,0.0,74,0.00,,,0.00,WUHU21623XXSP,2013-02-14 07:26:00,
2013-02-14 01:31:00,36.0,28.8,29.89,SSW,202,0.0,0.0,75,0.00,,,0.00,WUHU21623XXSP,2013-02-14 07:31:00,
2013-02-14 01:36:00,35.8,28.6,29.89,SSW,202,0.0,0.0,75,0.00,,,0.00,WUHU21623XXSP,2013-02-14 07:36:00,
2013-02-14 01:41:00,35.8,28.6,29.89,WSW,247,0.0,0.0,75,0.00,,,0.00,WUHU21623XXSP,2013-02-14 07:41:00,
2013-02-14 01:46:00,36.0,28.4,29.89,SW,225,0.0,6.5,74,0.00,,,0.00,WUHU21623XXSP,2013-02-14 07:46:00,
2013-02-14 01:51:00,36.3,28.8,29.89,SSW,213,2.3,6.5,74,0.00,,,0.00,WUHU21623XXSP,2013-02-14 07:51:00,
2013-02-14 01:56:00,36.9,29.0,29.89,SSW,202,2.9,4.5,73,0.00,,,0.00,WUHU21623XXSP,2013-02-14 07:56:00,
2013-02-14 02:01:00,37.2,29.0,29.89,SW,234,2.0,2.9,72,0.00,,,0.00,WUHU21623XXSP,2013-02-14 08:01:00,
2013-02-14 02:06:00,37.6,29.1,29.89,SW,225,0.0,7.6,71,0.00,,,0.00,WUHU21623XXSP,2013-02-14 08:06:00,
2013-02-14 02:11:00,37.9,29.1,29.89,SW,224,1.9,7.6,70,0.00,,,0.00,WUHU21623XXSP,2013-02-14 08:11:00,
2013-02-14 02:16:00,38.3,29.0,29.89,SW,221,4.1,4.7,69,0.00,,,0.00,WUHU21623XXSP,2013-02-14 08:16:00,
2013-02-14 02:21:00,38.5,28.8,29.89,WSW,247,2.0,4.7,68,0.00,,,0.00,WUHU21623XXSP,2013-02-14 08:21:00,
2013-02-14 02:26:00,38.8,29.1,29.89,SSW,202,2.8,3.1,68,0.00,,,0.00,WUHU21623XXSP,2013-02-14 08:26:00,
2013-02-14 02:31:00,38.8,28.7,29.89,SW,225,4.0,5.4,67,0.00,,,0.00,WUHU21623XXSP,2013-02-14 08:31:00,
2013-02-14 02:36:00,38.8,28.4,29.89,SW,225,0.0,5.4,66,0.00,,,0.00,WUHU21623XXSP,2013-02-14 08:36:00,
2013-02-14 02:41:00,38.8,28.4,29.89,SSW,202,0.0,5.4,66,0.00,,,0.00,WUHU21623XXSP,2013-02-14 08:41:00,
2013-02-14 02:46:00,38.8,28.4,29.89,WSW,247,0.9,5.4,66,0.00,,,0.00,WUHU21623XXSP,2013-02-14 08:46:00,
2013-02-14 02:51:00,38.8,28.0,29.89,SW,225,0.0,3.6,65,0.00,,,0.00,WUHU21623XXSP,2013-02-14 08:51:00,
2013-02-14 02:56:00,38.8,28.0,29.89,SW,225,4.5,4.5,65,0.00,,,0.00,WUHU21623XXSP,2013-02-14 08:56:00,
2013-02-14 03:01:00,38.8,27.6,29.88,SW,225,1.1,4.5,64,0.00,,,0.00,WUHU21623XXSP,2013-02-14 09:01:00,
2013-02-14 03:06:00,38.8,27.6,29.89,West,270,0.0,2.7,64,0.00,,,0.00,WUHU21623XXSP,2013-02-14 09:06:00,
2013-02-14 03:11:00,38.8,27.6,29.89,WSW,243,2.6,5.6,64,0.00,,,0.00,WUHU21623XXSP,2013-02-14 09:11:00,
2013-02-14 03:16:00,38.8,27.2,29.88,SW,225,2.9,5.6,63,0.00,,,0.00,WUHU21623XXSP,2013-02-14 09:16:00,
2013-02-14 03:21:00,38.8,27.2,29.88,SW,225,3.6,3.6,63,0.00,,,0.00,WUHU21623XXSP,2013-02-14 09:21:00,
2013-02-14 03:26:00,38.8,27.2,29.89,WSW,247,0.7,4.0,63,0.00,,,0.00,WUHU21623XXSP,2013-02-14 09:26:00,
2013-02-14 03:31:00,38.8,27.2,29.88,West,270,0.0,4.0,63,0.00,,,0.00,WUHU21623XXSP,2013-02-14 09:31:00,
2013-02-14 03:36:00,38.8,27.2,29.88,WSW,247,0.0,2.5,63,0.00,,,0.00,WUHU21623XXSP,2013-02-14 09:36:00,
2013-02-14 03:41:00,38.8,26.9,29.88,WSW,247,0.0,1.8,62,0.00,,,0.00,WUHU21623XXSP,2013-02-14 09:41:00,
2013-02-14 03:46:00,38.7,26.7,29.88,WSW,247,0.0,0.0,62,0.00,,,0.00,WUHU21623XXSP,2013-02-14 09:46:00,
2013-02-14 03:51:00,38.7,26.7,29.89,WSW,247,0.0,0.0,62,0.00,,,0.00,WUHU21623XXSP,2013-02-14 09:51:00,
2013-02-14 03:56:00,38.5,26.5,29.89,SW,225,4.5,4.5,62,0.00,,,0.00,WUHU21623XXSP,2013-02-14 09:56:00,
2013-02-14 04:01:00,38.5,26.5,29.89,WSW,247,0.0,4.5,62,0.00,,,0.00,WUHU21623XXSP,2013-02-14 10:01:00,
2013-02-14 04:06:00,38.3,26.4,29.89,SW,225,0.0,4.0,62,0.00,,,0.00,WUHU21623XXSP,2013-02-14 10:06:00,
2013-02-14 04:11:00,38.1,26.2,29.89,WSW,247,0.0,4.7,62,0.00,,,0.00,WUHU21623XXSP,2013-02-14 10:11:00,
2013-02-14 04:16:00,38.1,26.2,29.88,WSW,247,0.0,4.7,62,0.00,,,0.00,WUHU21623XXSP,2013-02-14 10:16:00,
2013-02-14 04:21:00,37.9,26.0,29.89,SW,225,1.3,3.8,62,0.00,,,0.00,WUHU21623XXSP,2013-02-14 10:21:00,
2013-02-14 04:26:00,37.9,26.0,29.89,SW,225,1.6,1.6,62,0.00,,,0.00,WUHU21623XXSP,2013-02-14 10:26:00,
2013-02-14 04:31:00,37.9,26.0,29.89,SW,225,0.0,1.6,62,0.00,,,0.00,WUHU21623XXSP,2013-02-14 10:31:00,
2013-02-14 04:36:00,37.8,25.9,29.89,South,180,0.0,1.5,62,0.00,,,0.00,WUHU21623XXSP,2013-02-14 10:36:00,
2013-02-14 04:41:00,37.6,25.7,29.89,SW,225,0.0,0.0,62,0.00,,,0.00,WUHU21623XXSP,2013-02-14 10:41:00,
2013-02-14 04:46:00,37.4,25.6,29.88,SSW,202,0.0,0.0,62,0.00,,,0.00,WUHU21623XXSP,2013-02-14 10:46:00,
2013-02-14 04:51:00,37.2,25.4,29.89,SSW,202,2.9,3.1,62,0.00,,,0.00,WUHU21623XXSP,2013-02-14 10:51:00,
2013-02-14 04:56:00,37.0,25.4,29.89,SSW,202,0.0,3.1,62,0.00,,,0.00,WUHU21623XXSP,2013-02-14 10:56:00,
2013-02-14 05:01:00,36.9,25.1,29.89,SSW,202,0.0,0.0,62,0.00,,,0.00,WUHU21623XXSP,2013-02-14 11:01:00,
2013-02-14 05:06:00,36.7,25.3,29.89,SSW,202,0.0,0.0,63,0.00,,,0.00,WUHU21623XXSP,2013-02-14 11:06:00,
2013-02-14 05:11:00,36.3,24.9,29.89,SSW,202,0.0,0.0,63,0.00,,,0.00,WUHU21623XXSP,2013-02-14 11:11:00,
2013-02-14 05:16:00,36.1,24.7,29.89,SSW,202,0.0,0.0,63,0.00,,,0.00,WUHU21623XXSP,2013-02-14 11:16:00,
2013-02-14 05:21:00,35.8,24.4,29.89,SSW,202,0.0,0.0,63,0.00,,,0.00,WUHU21623XXSP,2013-02-14 11:21:00,
2013-02-14 05:26:00,35.4,24.4,29.89,SSW,202,0.0,0.0,64,0.00,,,0.00,WUHU21623XXSP,2013-02-14 11:26:00,
2013-02-14 05:31:00,35.1,24.1,29.89,SSW,202,0.0,0.0,64,0.00,,,0.00,WUHU21623XXSP,2013-02-14 11:31:00,
2013-02-14 05:36:00,34.5,23.5,29.89,SSW,202,0.0,0.0,64,0.00,,,0.00,WUHU21623XXSP,2013-02-14 11:36:00,
2013-02-14 05:41:00,34.3,23.7,29.89,SSW,202,0.0,0.0,65,0.00,,,0.00,WUHU21623XXSP,2013-02-14 11:41:00,
2013-02-14 05:46:00,34.0,23.4,29.89,SSW,202,0.0,0.0,65,0.00,,,0.00,WUHU21623XXSP,2013-02-14 11:46:00,
2013-02-14 05:52:00,33.6,23.0,29.89,SSW,202,0.0,0.0,65,0.00,,,0.00,WUHU21623XXSP,2013-02-14 11:52:00,
2013-02-14 05:57:00,33.3,22.7,29.89,SSW,202,0.0,0.0,65,0.00,,,0.00,WUHU21623XXSP,2013-02-14 11:57:00,
2013-02-14 06:02:00,33.1,22.9,29.90,SSW,202,0.0,0.0,66,0.00,,,0.00,WUHU21623XXSP,2013-02-14 12:02:00,
2013-02-14 06:07:00,32.7,22.9,29.90,SSW,202,0.0,0.0,67,0.00,,,0.00,WUHU21623XXSP,2013-02-14 12:07:00,
2013-02-14 06:12:00,32.5,22.8,29.90,SSW,202,0.0,0.0,67,0.00,,,0.00,WUHU21623XXSP,2013-02-14 12:12:00,
2013-02-14 06:17:00,32.2,22.4,29.90,SSW,202,0.0,0.4,67,0.00,,,0.00,WUHU21623XXSP,2013-02-14 12:17:00,
2013-02-14 06:22:00,32.0,22.3,29.91,SSW,202,0.0,0.4,67,0.00,,,0.00,WUHU21623XXSP,2013-02-14 12:22:00,
2013-02-14 06:27:00,31.8,22.5,29.91,SSW,202,0.0,0.0,68,0.00,,,0.00,WUHU21623XXSP,2013-02-14 12:27:00,
2013-02-14 06:32:00,31.6,22.3,29.91,SSW,202,0.0,0.0,68,0.00,,,0.00,WUHU21623XXSP,2013-02-14 12:32:00,
2013-02-14 06:37:00,31.6,22.6,29.91,SSW,202,0.0,0.0,69,0.00,,,0.00,WUHU21623XXSP,2013-02-14 12:37:00,
2013-02-14 06:42:00,31.3,22.3,29.91,SSW,202,0.0,0.0,69,0.00,,,0.00,WUHU21623XXSP,2013-02-14 12:42:00,
2013-02-14 06:47:00,31.3,22.3,29.91,SSW,202,0.0,0.0,69,0.00,,,0.00,WUHU21623XXSP,2013-02-14 12:47:00,
2013-02-14 06:52:00,31.1,22.1,29.91,SSW,202,0.0,0.0,69,0.00,,,0.00,WUHU21623XXSP,2013-02-14 12:52:00,
2013-02-14 06:57:00,30.9,22.3,29.91,SSW,202,0.0,0.0,70,0.00,,,0.00,WUHU21623XXSP,2013-02-14 12:57:00,
2013-02-14 07:02:00,30.9,22.3,29.91,SSW,202,0.0,0.0,70,0.00,,,0.00,WUHU21623XXSP,2013-02-14 13:02:00,
2013-02-14 07:07:00,30.9,22.6,29.91,SSW,202,0.0,0.0,71,0.00,,,0.00,WUHU21623XXSP,2013-02-14 13:07:00,
2013-02-14 07:12:00,30.7,22.4,29.91,SSW,202,0.0,0.0,71,0.00,,,0.00,WUHU21623XXSP,2013-02-14 13:12:00,
2013-02-14 07:17:00,30.7,22.4,29.93,SSW,202,0.0,0.0,71,0.00,,,0.00,WUHU21623XXSP,2013-02-14 13:17:00,
2013-02-14 07:22:00,30.9,22.9,29.93,SSW,202,0.0,0.0,72,0.00,,,0.00,WUHU21623XXSP,2013-02-14 13:22:00,
2013-02-14 07:27:00,31.3,23.3,29.94,WSW,247,0.0,0.0,72,0.00,,,0.00,WUHU21623XXSP,2013-02-14 13:27:00,
2013-02-14 07:32:00,31.6,23.6,29.94,WSW,247,0.0,0.0,72,0.00,,,0.00,WUHU21623XXSP,2013-02-14 13:32:00,
2013-02-14 07:37:00,31.8,24.2,29.94,WSW,247,0.0,0.0,73,0.00,,,0.00,WUHU21623XXSP,2013-02-14 13:37:00,
2013-02-14 07:43:00,32.2,24.5,29.94,WSW,247,0.0,0.0,73,0.00,,,0.00,WUHU21623XXSP,2013-02-14 13:43:00,
2013-02-14 07:48:00,32.7,25.0,29.94,WSW,247,0.0,0.0,73,0.00,,,0.00,WUHU21623XXSP,2013-02-14 13:48:00,
2013-02-14 07:53:00,33.4,25.6,29.94,WSW,247,0.0,0.0,73,0.00,,,0.00,WUHU21623XXSP,2013-02-14 13:53:00,
2013-02-14 07:58:00,34.2,26.3,29.95,West,270,0.0,0.0,73,0.00,,,0.00,WUHU21623XXSP,2013-02-14 13:58:00,
2013-02-14 08:03:00,34.9,26.7,29.95,WSW,247,0.0,0.0,72,0.00,,,0.00,WUHU21623XXSP,2013-02-14 14:03:00,
2013-02-14 08:08:00,35.8,27.6,29.95,WSW,247,0.0,1.6,72,0.00,,,0.00,WUHU21623XXSP,2013-02-14 14:08:00,
2013-02-14 08:13:00,36.5,27.7,29.96,NW,315,0.0,4.0,70,0.00,,,0.00,WUHU21623XXSP,2013-02-14 14:13:00,
2013-02-14 08:18:00,37.2,28.4,29.96,WNW,292,0.0,4.0,70,0.00,,,0.00,WUHU21623XXSP,2013-02-14 14:18:00,
2013-02-14 08:24:00,38.1,28.5,29.96,WSW,247,3.1,3.6,68,0.00,,,0.00,WUHU21623XXSP,2013-02-14 14:24:00,
2013-02-14 08:29:00,38.7,28.6,29.96,WSW,247,0.0,3.1,67,0.00,,,0.00,WUHU21623XXSP,2013-02-14 14:29:00,
2013-02-14 08:35:00,39.4,29.2,29.96,WSW,239,5.4,7.4,67,0.00,,,0.00,WUHU21623XXSP,2013-02-14 14:35:00,
2013-02-14 08:40:00,39.7,29.2,29.96,West,270,2.5,7.4,66,0.00,,,0.00,WUHU21623XXSP,2013-02-14 14:40:00,
2013-02-14 08:45:00,40.1,29.2,29.97,West,272,4.3,8.5,65,0.00,,,0.00,WUHU21623XXSP,2013-02-14 14:45:00,
2013-02-14 08:50:00,40.6,29.8,29.97,NW,315,3.1,8.5,65,0.00,,,0.00,WUHU21623XXSP,2013-02-14 14:50:00,
2013-02-14 08:56:00,40.8,29.6,29.97,NW,308,2.6,4.9,64,0.00,,,0.00,WUHU21623XXSP,2013-02-14 14:56:00,
2013-02-14 09:00:00,41.2,29.9,29.98,WNW,292,0.0,5.1,64,0.00,,,0.00,WUHU21623XXSP,2013-02-14 15:00:00,
2013-02-14 09:06:00,41.5,29.8,29.98,NW,304,3.7,7.2,63,0.00,,,0.00,WUHU21623XXSP,2013-02-14 15:06:00,
2013-02-14 09:11:00,41.7,30.0,29.98,West,270,0.0,7.2,63,0.00,,,0.00,WUHU21623XXSP,2013-02-14 15:11:00,
2013-02-14 09:16:00,42.1,30.0,29.97,NW,319,3.1,4.7,62,0.00,,,0.00,WUHU21623XXSP,2013-02-14 15:16:00,
2013-02-14 09:21:00,42.6,30.5,29.98,NW,307,2.6,3.8,62,0.00,,,0.00,WUHU21623XXSP,2013-02-14 15:21:00,
2013-02-14 09:26:00,42.8,30.6,29.98,NW,315,0.0,3.6,62,0.00,,,0.00,WUHU21623XXSP,2013-02-14 15:26:00,
2013-02-14 09:31:00,43.3,31.2,29.97,NW,315,0.0,0.0,62,0.00,,,0.00,WUHU21623XXSP,2013-02-14 15:31:00,
2013-02-14 09:36:00,43.7,31.1,29.98,WNW,292,1.6,5.4,61,0.00,,,0.00,WUHU21623XXSP,2013-02-14 15:36:00,
2013-02-14 09:41:00,44.2,31.7,29.98,WSW,247,2.5,5.4,61,0.00,,,0.00,WUHU21623XXSP,2013-02-14 15:41:00,
2013-02-14 09:46:00,44.4,31.5,29.98,NNW,328,2.5,7.2,60,0.00,,,0.00,WUHU21623XXSP,2013-02-14 15:46:00,
2013-02-14 09:51:00,45.0,32.0,29.98,WNW,292,0.0,7.2,60,0.00,,,0.00,WUHU21623XXSP,2013-02-14 15:51:00,
2013-02-14 09:56:00,45.5,32.5,29.98,NW,315,0.0,5.8,60,0.00,,,0.00,WUHU21623XXSP,2013-02-14 15:56:00,
2013-02-14 10:01:00,45.7,32.2,29.98,NW,315,2.0,5.8,59,0.00,,,0.00,WUHU21623XXSP,2013-02-14 16:01:00,
2013-02-14 10:06:00,45.7,32.2,29.98,NW,315,0.0,5.8,59,0.00,,,0.00,WUHU21623XXSP,2013-02-14 16:06:00,
2013-02-14 10:11:00,46.0,32.5,29.99,NW,315,0.0,5.8,59,0.00,,,0.00,WUHU21623XXSP,2013-02-14 16:11:00,
2013-02-14 10:16:00,46.6,33.0,29.98,WNW,292,0.0,5.8,59,0.00,,,0.00,WUHU21623XXSP,2013-02-14 16:16:00,
2013-02-14 10:21:00,47.1,33.1,29.99,WNW,292,1.1,1.1,58,0.00,,,0.00,WUHU21623XXSP,2013-02-14 16:21:00,
2013-02-14 10:26:00,47.1,33.1,29.99,West,270,0.0,1.6,58,0.00,,,0.00,WUHU21623XXSP,2013-02-14 16:26:00,
2013-02-14 10:31:00,47.3,33.2,29.99,North,0,1.6,1.6,58,0.00,,,0.00,WUHU21623XXSP,2013-02-14 16:31:00,
2013-02-14 10:36:00,47.8,33.8,29.99,West,270,0.0,2.9,58,0.00,,,0.00,WUHU21623XXSP,2013-02-14 16:36:00,
2013-02-14 10:41:00,48.2,33.7,29.98,NNW,337,1.8,2.9,57,0.00,,,0.00,WUHU21623XXSP,2013-02-14 16:41:00,
2013-02-14 10:46:00,48.6,34.0,29.98,NNW,337,0.0,1.8,57,0.00,,,0.00,WUHU21623XXSP,2013-02-14 16:46:00,
2013-02-14 10:51:00,48.9,34.3,29.98,WNW,292,0.0,0.0,57,0.00,,,0.00,WUHU21623XXSP,2013-02-14 16:51:00,
2013-02-14 10:56:00,49.3,34.2,29.98,NW,315,0.0,3.8,56,0.00,,,0.00,WUHU21623XXSP,2013-02-14 16:56:00,
2013-02-14 11:01:00,49.6,34.1,29.99,North,355,3.6,5.6,56,0.00,,,0.00,WUHU21623XXSP,2013-02-14 17:01:00,
2013-02-14 11:06:00,49.8,34.3,29.99,North,2,3.7,8.3,55,0.00,,,0.00,WUHU21623XXSP,2013-02-14 17:06:00,
2013-02-14 11:11:00,50.4,34.3,29.99,NW,315,0.0,8.3,54,0.00,,,0.00,WUHU21623XXSP,2013-02-14 17:11:00,
2013-02-14 11:16:00,50.5,34.5,29.99,WNW,292,2.2,2.9,54,0.00,,,0.00,WUHU21623XXSP,2013-02-14 17:16:00,
2013-02-14 11:21:00,50.5,34.5,30.00,NW,315,0.0,2.2,54,0.00,,,0.00,WUHU21623XXSP,2013-02-14 17:21:00,
2013-02-14 11:26:00,50.7,34.6,29.99,NW,315,1.3,2.0,54,0.00,,,0.00,WUHU21623XXSP,2013-02-14 17:26:00,
2013-02-14 11:31:00,50.5,34.5,30.00,North,0,2.2,2.2,54,0.00,,,0.00,WUHU21623XXSP,2013-02-14 17:31:00,
2013-02-14 11:36:00,50.9,34.8,30.00,West,270,0.0,3.6,54,0.00,,,0.00,WUHU21623XXSP,2013-02-14 17:36:00,
2013-02-14 11:41:00,51.3,35.1,29.99,NNW,337,0.0,3.6,54,0.00,,,0.00,WUHU21623XXSP,2013-02-14 17:41:00,
2013-02-14 11:46:00,51.8,35.6,29.99,WSW,247,2.9,3.1,54,0.00,,,0.00,WUHU21623XXSP,2013-02-14 17:46:00,
2013-02-14 11:51:00,52.0,35.3,30.00,SW,225,0.0,3.1,53,0.00,,,0.00,WUHU21623XXSP,2013-02-14 17:51:00,
2013-02-14 11:56:00,52.2,35.5,29.99,NW,315,0.0,1.8,53,0.00,,,0.00,WUHU21623XXSP,2013-02-14 17:56:00,
2013-02-14 12:01:00,52.9,36.1,29.99,West,270,0.0,5.4,53,0.00,,,0.00,WUHU21623XXSP,2013-02-14 18:01:00,
2013-02-14 12:06:00,53.8,36.0,29.99,NW,315,0.0,5.4,51,0.00,,,0.00,WUHU21623XXSP,2013-02-14 18:06:00,
2013-02-14 12:11:00,53.8,35.6,29.99,NNW,337,0.0,2.0,50,0.00,,,0.00,WUHU21623XXSP,2013-02-14 18:11:00,
2013-02-14 12:16:00,53.8,35.6,29.99,NNW,337,4.9,4.9,50,0.00,,,0.00,WUHU21623XXSP,2013-02-14 18:16:00,
2013-02-14 12:21:00,54.1,35.9,29.99,WNW,292,0.0,4.9,50,0.00,,,0.00,WUHU21623XXSP,2013-02-14 18:21:00,
2013-02-14 12:26:00,54.3,36.1,29.99,WSW,247,0.0,4.9,50,0.00,,,0.00,WUHU21623XXSP,2013-02-14 18:26:00,
2013-02-14 12:31:00,54.7,35.8,29.98,West,270,0.0,2.2,49,0.00,,,0.00,WUHU21623XXSP,2013-02-14 18:31:00,
2013-02-14 12:36:00,55.0,36.2,29.99,WSW,247,3.8,5.1,49,0.00,,,0.00,WUHU21623XXSP,2013-02-14 18:36:00,
2013-02-14 12:41:00,55.0,36.2,29.98,West,270,1.1,5.1,49,0.00,,,0.00,WUHU21623XXSP,2013-02-14 18:41:00,
2013-02-14 12:46:00,55.4,35.9,29.99,West,277,2.4,4.7,48,0.00,,,0.00,WUHU21623XXSP,2013-02-14 18:46:00,
2013-02-14 12:52:00,55.6,35.5,29.98,NW,315,0.0,4.7,47,0.00,,,0.00,WUHU21623XXSP,2013-02-14 18:52:00,
2013-02-14 12:57:00,55.6,35.0,29.98,NW,315,2.9,4.0,46,0.00,,,0.00,WUHU21623XXSP,2013-02-14 18:57:00,
2013-02-14 13:02:00,55.0,33.9,29.98,WNW,292,2.5,4.0,45,0.00,,,0.00,WUHU21623XXSP,2013-02-14 19:02:00,
2013-02-14 13:07:00,54.7,34.2,29.98,WNW,292,0.0,2.9,46,0.00,,,0.00,WUHU21623XXSP,2013-02-14 19:07:00,
2013-02-14 13:12:00,54.5,34.0,29.98,NW,315,2.9,2.9,46,0.00,,,0.00,WUHU21623XXSP,2013-02-14 19:12:00,
2013-02-14 13:17:00,55.0,35.0,29.98,West,270,0.0,2.9,47,0.00,,,0.00,WUHU21623XXSP,2013-02-14 19:17:00,
2013-02-14 13:22:00,55.8,35.1,29.98,WNW,298,3.3,5.1,46,0.00,,,0.00,WUHU21623XXSP,2013-02-14 19:22:00,
2013-02-14 13:27:00,56.1,34.9,29.98,WNW,292,3.4,5.1,45,0.00,,,0.00,WUHU21623XXSP,2013-02-14 19:27:00,
2013-02-14 13:32:00,56.5,34.7,29.98,NNW,328,2.3,4.7,44,0.00,,,0.00,WUHU21623XXSP,2013-02-14 19:32:00,
2013-02-14 13:37:00,57.0,35.2,29.98,NNW,327,2.6,4.9,44,0.00,,,0.00,WUHU21623XXSP,2013-02-14 19:37:00,
2013-02-14 13:42:00,57.2,35.4,29.97,WNW,292,0.0,4.9,44,0.00,,,0.00,WUHU21623XXSP,2013-02-14 19:42:00,
2013-02-14 13:47:00,56.8,35.0,29.98,NW,315,0.0,6.3,44,0.00,,,0.00,WUHU21623XXSP,2013-02-14 19:47:00,
2013-02-14 13:52:00,57.0,35.2,29.98,WNW,292,0.0,6.3,44,0.00,,,0.00,WUHU21623XXSP,2013-02-14 19:52:00,
2013-02-14 13:57:00,56.5,33.6,29.98,NW,316,2.6,6.0,42,0.00,,,0.00,WUHU21623XXSP,2013-02-14 19:57:00,
2013-02-14 14:02:00,55.9,33.1,29.97,WSW,247,5.8,6.0,42,0.00,,,0.00,WUHU21623XXSP,2013-02-14 20:02:00,
2013-02-14 14:07:00,55.2,32.4,29.98,WNW,292,1.8,5.8,42,0.00,,,0.00,WUHU21623XXSP,2013-02-14 20:07:00,
2013-02-14 14:12:00,55.0,32.8,29.97,North,0,0.0,2.7,43,0.00,,,0.00,WUHU21623XXSP,2013-02-14 20:12:00,
2013-02-14 14:17:00,55.2,33.0,29.98,NNW,334,3.2,5.4,43,0.00,,,0.00,WUHU21623XXSP,2013-02-14 20:17:00,
2013-02-14 14:22:00,55.8,33.5,29.98,NW,315,1.3,5.4,43,0.00,,,0.00,WUHU21623XXSP,2013-02-14 20:22:00,
2013-02-14 14:27:00,56.1,33.8,29.98,NW,313,4.2,6.5,43,0.00,,,0.00,WUHU21623XXSP,2013-02-14 20:27:00,
2013-02-14 14:32:00,56.8,34.5,29.98,West,266,5.6,6.5,43,0.00,,,0.00,WUHU21623XXSP,2013-02-14 20:32:00,
2013-02-14 14:37:00,56.5,33.6,29.98,WNW,292,4.8,6.5,42,0.00,,,0.00,WUHU21623XXSP,2013-02-14 20:37:00,
2013-02-14 14:42:00,55.9,33.6,29.98,WNW,292,2.2,6.5,43,0.00,,,0.00,WUHU21623XXSP,2013-02-14 20:42:00,
2013-02-14 14:47:00,55.8,34.0,29.98,WNW,292,2.0,6.0,44,0.00,,,0.00,WUHU21623XXSP,2013-02-14 20:47:00,
2013-02-14 14:52:00,55.8,34.0,29.98,WSW,247,0.0,4.5,44,0.00,,,0.00,WUHU21623XXSP,2013-02-14 20:52:00,
2013-02-14 14:57:00,55.2,33.5,29.98,WSW,247,0.0,7.8,44,0.00,,,0.00,WUHU21623XXSP,2013-02-14 20:57:00,
2013-02-14 15:02:00,55.0,32.8,29.98,WSW,257,3.9,7.8,43,0.00,,,0.00,WUHU21623XXSP,2013-02-14 21:02:00,
2013-02-14 15:07:00,55.0,32.8,29.98,WNW,292,5.6,7.8,43,0.00,,,0.00,WUHU21623XXSP,2013-02-14 21:07:00,
2013-02-14 15:12:00,54.7,33.0,29.98,NW,315,0.0,7.4,44,0.00,,,0.00,WUHU21623XXSP,2013-02-14 21:12:00,
2013-02-14 15:17:00,54.9,32.6,29.98,NW,309,3.1,6.0,43,0.00,,,0.00,WUHU21623XXSP,2013-02-14 21:17:00,
2013-02-14 15:22:00,54.9,33.2,29.98,WNW,292,0.0,4.7,44,0.00,,,0.00,WUHU21623XXSP,2013-02-14 21:22:00,
2013-02-14 15:27:00,54.9,33.2,29.98,West,267,4.0,5.6,44,0.00,,,0.00,WUHU21623XXSP,2013-02-14 21:27:00,
2013-02-14 15:32:00,54.7,32.5,29.98,NW,314,5.1,8.1,43,0.00,,,0.00,WUHU21623XXSP,2013-02-14 21:32:00,
2013-02-14 15:37:00,54.3,32.2,29.98,WNW,298,2.1,8.1,43,0.00,,,0.00,WUHU21623XXSP,2013-02-14 21:37:00,
2013-02-14 15:42:00,53.8,31.7,29.98,NW,304,4.1,6.5,43,0.00,,,0.00,WUHU21623XXSP,2013-02-14 21:42:00,
2013-02-14 15:47:00,53.2,31.7,29.99,West,280,3.6,9.6,44,0.00,,,0.00,WUHU21623XXSP,2013-02-14 21:47:00,
2013-02-14 15:52:00,53.2,31.7,29.99,WNW,290,3.8,9.6,44,0.00,,,0.00,WUHU21623XXSP,2013-02-14 21:52:00,
2013-02-14 15:57:00,53.2,31.7,29.99,NNW,331,2.1,6.5,44,0.00,,,0.00,WUHU21623XXSP,2013-02-14 21:57:00,
2013-02-14 16:02:00,53.2,31.7,29.99,WNW,292,5.1,6.3,44,0.00,,,0.00,WUHU21623XXSP,2013-02-14 22:02:00,
2013-02-14 16:07:00,53.2,32.3,29.99,NNW,331,3.6,6.3,45,0.00,,,0.00,WUHU21623XXSP,2013-02-14 22:07:00,
2013-02-14 16:12:00,53.2,32.3,29.99,WNW,284,1.5,6.5,45,0.00,,,0.00,WUHU21623XXSP,2013-02-14 22:12:00,
2013-02-14 16:17:00,53.2,32.3,29.99,WSW,247,4.3,6.5,45,0.00,,,0.00,WUHU21623XXSP,2013-02-14 22:17:00,
2013-02-14 16:22:00,53.2,31.7,30.00,WNW,292,0.2,4.3,44,0.00,,,0.00,WUHU21623XXSP,2013-02-14 22:22:00,
2013-02-14 16:27:00,52.9,30.9,30.00,NW,306,3.2,7.2,43,0.00,,,0.00,WUHU21623XXSP,2013-02-14 22:27:00,
2013-02-14 16:32:00,52.7,30.7,30.00,NW,315,2.7,7.2,43,0.00,,,0.00,WUHU21623XXSP,2013-02-14 22:32:00,
2013-02-14 16:37:00,52.5,30.5,30.01,NW,307,2.4,6.9,43,0.00,,,0.00,WUHU21623XXSP,2013-02-14 22:37:00,
2013-02-14 16:42:00,52.3,30.4,30.01,WSW,247,4.9,5.6,43,0.00,,,0.00,WUHU21623XXSP,2013-02-14 22:42:00,
2013-02-14 16:47:00,52.2,30.8,30.01,WSW,256,3.6,4.9,44,0.00,,,0.00,WUHU21623XXSP,2013-02-14 22:47:00,
2013-02-14 16:52:00,52.0,31.2,30.01,North,354,2.7,6.0,45,0.00,,,0.00,WUHU21623XXSP,2013-02-14 22:52:00,
2013-02-14 16:57:00,51.6,30.8,30.01,North,352,3.3,6.0,45,0.00,,,0.00,WUHU21623XXSP,2013-02-14 22:57:00,
2013-02-14 17:02:00,51.4,31.2,30.01,WNW,292,0.0,4.3,46,0.00,,,0.00,WUHU21623XXSP,2013-02-14 23:02:00,
2013-02-14 17:07:00,51.3,31.1,30.01,NW,315,0.0,4.7,46,0.00,,,0.00,WUHU21623XXSP,2013-02-14 23:07:00,
2013-02-14 17:12:00,50.9,30.8,30.01,NW,324,3.8,7.6,46,0.00,,,0.00,WUHU21623XXSP,2013-02-14 23:12:00,
2013-02-14 17:17:00,50.7,31.2,30.01,WNW,292,0.0,7.6,47,0.00,,,0.00,WUHU21623XXSP,2013-02-14 23:17:00,
2013-02-14 17:22:00,50.5,31.0,30.01,NW,313,2.3,6.7,47,0.00,,,0.00,WUHU21623XXSP,2013-02-14 23:22:00,
2013-02-14 17:27:00,50.4,30.8,30.01,NW,315,2.2,6.7,47,0.00,,,0.00,WUHU21623XXSP,2013-02-14 23:27:00,
2013-02-14 17:32:00,50.2,31.2,30.01,WNW,292,3.8,3.8,48,0.00,,,0.00,WUHU21623XXSP,2013-02-14 23:32:00,
2013-02-14 17:37:00,49.8,30.9,30.02,WNW,300,2.2,3.8,48,0.00,,,0.00,WUHU21623XXSP,2013-02-14 23:37:00,
2013-02-14 17:42:00,49.6,31.3,30.02,WNW,292,0.0,5.8,49,0.00,,,0.00,WUHU21623XXSP,2013-02-14 23:42:00,
2013-02-14 17:47:00,49.6,31.3,30.02,WNW,292,0.0,5.8,49,0.00,,,0.00,WUHU21623XXSP,2013-02-14 23:47:00,
2013-02-14 17:52:00,49.3,30.9,30.03,NW,315,2.9,3.9,49,0.00,,,0.00,WUHU21623XXSP,2013-02-14 23:52:00,
2013-02-14 17:57:00,49.1,31.3,30.03,NW,315,0.0,3.9,50,0.00,,,0.00,WUHU21623XXSP,2013-02-14 23:57:00,
2013-02-14 18:02:00,48.9,31.1,30.02,NW,315,0.0,0.0,50,0.00,,,0.00,WUHU21623XXSP,2013-02-15 00:02:00,
2013-02-14 18:07:00,48.7,30.9,30.03,NW,315,0.0,0.0,50,0.00,,,0.00,WUHU21623XXSP,2013-02-15 00:07:00,
2013-02-14 18:12:00,48.6,30.7,30.03,NW,315,0.0,3.6,50,0.00,,,0.00,WUHU21623XXSP,2013-02-15 00:12:00,
2013-02-14 18:17:00,48.4,31.0,30.03,WNW,292,0.0,3.6,51,0.00,,,0.00,WUHU21623XXSP,2013-02-15 00:17:00,
2013-02-14 18:22:00,48.0,30.7,30.03,WNW,292,0.0,0.0,51,0.00,,,0.00,WUHU21623XXSP,2013-02-15 00:22:00,
2013-02-14 18:27:00,48.0,30.7,30.03,NNW,337,0.0,0.0,51,0.00,,,0.00,WUHU21623XXSP,2013-02-15 00:27:00,
2013-02-14 18:32:00,47.8,31.0,30.03,NNW,337,1.5,1.8,52,0.00,,,0.00,WUHU21623XXSP,2013-02-15 00:32:00,
2013-02-14 18:37:00,47.7,30.8,30.03,NNW,337,1.3,1.8,52,0.00,,,0.00,WUHU21623XXSP,2013-02-15 00:37:00,
2013-02-14 18:42:00,47.5,30.6,30.03,NNW,337,0.0,1.3,52,0.00,,,0.00,WUHU21623XXSP,2013-02-15 00:42:00,
2013-02-14 18:47:00,47.3,30.5,30.04,NW,315,3.2,3.4,52,0.00,,,0.00,WUHU21623XXSP,2013-02-15 00:47:00,
2013-02-14 18:52:00,47.1,30.3,30.04,North,0,1.1,3.4,52,0.00,,,0.00,WUHU21623XXSP,2013-02-15 00:52:00,
2013-02-14 18:57:00,46.9,30.1,30.04,NW,315,0.0,1.1,52,0.00,,,0.00,WUHU21623XXSP,2013-02-15 00:57:00,
2013-02-14 19:02:00,46.8,30.4,30.05,NNW,335,3.4,10.7,53,0.00,,,0.00,WUHU21623XXSP,2013-02-15 01:02:00,
2013-02-14 19:07:00,46.6,30.3,30.05,NNW,337,5.1,10.7,53,0.00,,,0.00,WUHU21623XXSP,2013-02-15 01:07:00,
2013-02-14 19:12:00,46.4,30.1,30.05,NNW,337,5.4,5.4,53,0.00,,,0.00,WUHU21623XXSP,2013-02-15 01:12:00,
2013-02-14 19:17:00,46.2,29.9,30.05,NNW,337,0.0,5.4,53,0.00,,,0.00,WUHU21623XXSP,2013-02-15 01:17:00,
2013-02-14 19:22:00,46.0,30.2,30.05,North,0,0.0,5.4,54,0.00,,,0.00,WUHU21623XXSP,2013-02-15 01:22:00,
2013-02-14 19:27:00,45.7,29.9,30.05,North,0,0.0,5.4,54,0.00,,,0.00,WUHU21623XXSP,2013-02-15 01:27:00,
2013-02-14 19:32:00,45.5,30.2,30.05,NW,315,0.0,5.4,55,0.00,,,0.00,WUHU21623XXSP,2013-02-15 01:32:00,
2013-02-14 19:37:00,45.3,30.0,30.06,NNW,337,2.9,3.1,55,0.00,,,0.00,WUHU21623XXSP,2013-02-15 01:37:00,
2013-02-14 19:42:00,45.1,29.9,30.06,NNW,345,1.9,2.9,55,0.00,,,0.00,WUHU21623XXSP,2013-02-15 01:42:00,
2013-02-14 19:47:00,45.0,29.7,30.06,NW,315,0.0,2.9,55,0.00,,,0.00,WUHU21623XXSP,2013-02-15 01:47:00,
2013-02-14 19:52:00,45.0,29.7,30.06,NW,315,0.0,2.0,55,0.00,,,0.00,WUHU21623XXSP,2013-02-15 01:52:00,
2013-02-14 19:57:00,44.8,30.0,30.06,NNW,337,0.0,0.4,56,0.00,,,0.00,WUHU21623XXSP,2013-02-15 01:57:00,
2013-02-14 20:02:00,44.6,29.8,30.06,NNW,337,0.0,0.4,56,0.00,,,0.00,WUHU21623XXSP,2013-02-15 02:02:00,
2013-02-14 20:07:00,44.4,29.7,30.06,NNW,337,0.0,0.0,56,0.00,,,0.00,WUHU21623XXSP,2013-02-15 02:07:00,
2013-02-14 20:12:00,44.4,29.7,30.06,NNW,337,0.0,0.0,56,0.00,,,0.00,WUHU21623XXSP,2013-02-15 02:12:00,
2013-02-14 20:17:00,44.4,30.1,30.06,NNW,337,0.0,0.0,57,0.00,,,0.00,WUHU21623XXSP,2013-02-15 02:17:00,
2013-02-14 20:22:00,44.4,30.1,30.06,WNW,292,0.0,0.0,57,0.00,,,0.00,WUHU21623XXSP,2013-02-15 02:22:00,
2013-02-14 20:27:00,44.4,30.1,30.06,NW,315,0.0,0.0,57,0.00,,,0.00,WUHU21623XXSP,2013-02-15 02:27:00,
2013-02-14 20:32:00,44.4,30.1,30.07,NW,315,0.0,0.0,57,0.00,,,0.00,WUHU21623XXSP,2013-02-15 02:32:00,
2013-02-14 20:37:00,44.4,30.6,30.07,NW,315,0.0,0.0,58,0.00,,,0.00,WUHU21623XXSP,2013-02-15 02:37:00,
2013-02-14 20:42:00,44.4,30.6,30.07,NW,315,0.0,0.0,58,0.00,,,0.00,WUHU21623XXSP,2013-02-15 02:42:00,
2013-02-14 20:47:00,44.4,30.6,30.07,NW,315,0.0,0.0,58,0.00,,,0.00,WUHU21623XXSP,2013-02-15 02:47:00,
2013-02-14 20:52:00,44.4,30.6,30.07,NW,315,0.0,0.0,58,0.00,,,0.00,WUHU21623XXSP,2013-02-15 02:52:00,
2013-02-14 20:57:00,44.4,30.6,30.07,NNW,337,0.0,0.0,58,0.00,,,0.00,WUHU21623XXSP,2013-02-15 02:57:00,
2013-02-14 21:02:00,44.4,30.6,30.08,WNW,292,0.0,1.6,58,0.00,,,0.00,WUHU21623XXSP,2013-02-15 03:02:00,
2013-02-14 21:07:00,44.4,30.6,30.08,NW,315,0.0,1.6,58,0.00,,,0.00,WUHU21623XXSP,2013-02-15 03:07:00,
2013-02-14 21:12:00,44.4,30.6,30.08,WNW,292,0.0,0.7,58,0.00,,,0.00,WUHU21623XXSP,2013-02-15 03:12:00,
2013-02-14 21:17:00,44.4,30.6,30.08,WNW,292,0.0,0.0,58,0.00,,,0.00,WUHU21623XXSP,2013-02-15 03:17:00,
2013-02-14 21:22:00,44.4,30.6,30.08,NW,315,0.0,0.0,58,0.00,,,0.00,WUHU21623XXSP,2013-02-15 03:22:00,
2013-02-14 21:27:00,44.4,30.6,30.09,WNW,292,0.0,0.0,58,0.00,,,0.00,WUHU21623XXSP,2013-02-15 03:27:00,
2013-02-14 21:32:00,44.4,30.6,30.09,WNW,292,0.0,0.0,58,0.00,,,0.00,WUHU21623XXSP,2013-02-15 03:32:00,
2013-02-14 21:37:00,44.4,30.6,30.09,WNW,292,0.0,0.0,58,0.00,,,0.00,WUHU21623XXSP,2013-02-15 03:37:00,
2013-02-14 21:42:00,44.2,30.4,30.09,WNW,292,0.0,0.0,58,0.00,,,0.00,WUHU21623XXSP,2013-02-15 03:42:00,
2013-02-14 21:47:00,44.2,30.4,30.09,WNW,292,0.0,0.0,58,0.00,,,0.00,WUHU21623XXSP,2013-02-15 03:47:00,
2013-02-14 21:52:00,44.2,30.4,30.09,WNW,292,0.0,0.0,58,0.00,,,0.00,WUHU21623XXSP,2013-02-15 03:52:00,
2013-02-14 21:57:00,44.2,30.8,30.09,WNW,292,0.0,1.8,59,0.00,,,0.00,WUHU21623XXSP,2013-02-15 03:57:00,
2013-02-14 22:02:00,44.2,30.8,30.09,WNW,292,1.6,3.1,59,0.00,,,0.00,WUHU21623XXSP,2013-02-15 04:02:00,
2013-02-14 22:07:00,44.1,30.6,30.09,WNW,292,1.6,5.1,59,0.00,,,0.00,WUHU21623XXSP,2013-02-15 04:07:00,
2013-02-14 22:12:00,44.1,30.6,30.10,NNW,337,2.9,5.1,59,0.00,,,0.00,WUHU21623XXSP,2013-02-15 04:12:00,
2013-02-14 22:17:00,43.9,30.5,30.10,WNW,292,0.0,3.8,59,0.00,,,0.00,WUHU21623XXSP,2013-02-15 04:17:00,
2013-02-14 22:22:00,43.9,30.5,30.10,NW,315,0.0,2.5,59,0.00,,,0.00,WUHU21623XXSP,2013-02-15 04:22:00,
2013-02-14 22:27:00,43.9,30.0,30.10,WNW,292,0.0,3.6,58,0.00,,,0.00,WUHU21623XXSP,2013-02-15 04:27:00,
2013-02-14 22:32:00,43.9,30.0,30.10,WNW,292,0.0,3.6,58,0.00,,,0.00,WUHU21623XXSP,2013-02-15 04:32:00,
2013-02-14 22:38:00,43.9,30.0,30.10,NW,315,0.0,4.0,58,0.00,,,0.00,WUHU21623XXSP,2013-02-15 04:38:00,
2013-02-14 22:43:00,43.9,30.0,30.10,NW,315,3.8,4.0,58,0.00,,,0.00,WUHU21623XXSP,2013-02-15 04:43:00,
2013-02-14 22:48:00,43.9,29.6,30.10,NW,315,0.0,3.8,57,0.00,,,0.00,WUHU21623XXSP,2013-02-15 04:48:00,
2013-02-14 22:53:00,43.9,29.6,30.10,WNW,292,3.8,3.8,57,0.00,,,0.00,WUHU21623XXSP,2013-02-15 04:53:00,
2013-02-14 22:58:00,43.9,29.6,30.10,West,270,0.0,3.8,57,0.00,,,0.00,WUHU21623XXSP,2013-02-15 04:58:00,
2013-02-14 23:00:00,43.9,29.6,30.10,WNW,292,2.2,3.8,57,0.00,,,0.00,WUHU21623XXSP,2013-02-15 05:00:00,
2013-02-14 23:05:00,43.9,29.6,30.10,WNW,292,0.0,2.2,57,0.00,,,0.00,WUHU21623XXSP,2013-02-15 05:05:00,
2013-02-14 23:10:00,43.9,29.6,30.10,WSW,247,0.0,0.0,57,0.00,,,0.00,WUHU21623XXSP,2013-02-15 05:10:00,
2013-02-14 23:15:00,43.7,29.4,30.10,WNW,292,0.0,2.2,57,0.00,,,0.00,WUHU21623XXSP,2013-02-15 05:15:00,
2013-02-14 23:20:00,43.7,29.9,30.10,WNW,292,0.0,2.2,58,0.00,,,0.00,WUHU21623XXSP,2013-02-15 05:20:00,
2013-02-14 23:25:00,43.5,29.7,30.11,WNW,292,0.0,0.0,58,0.00,,,0.00,WUHU21623XXSP,2013-02-15 05:25:00,
2013-02-14 23:30:00,43.5,29.7,30.10,NW,315,0.0,4.9,58,0.00,,,0.00,WUHU21623XXSP,2013-02-15 05:30:00,
2013-02-14 23:35:00,43.5,29.7,30.11,WNW,292,0.0,4.9,58,0.00,,,0.00,WUHU21623XXSP,2013-02-15 05:35:00,
2013-02-14 23:40:00,43.3,29.5,30.11,NW,315,0.0,2.9,58,0.00,,,0.00,WUHU21623XXSP,2013-02-15 05:40:00,
2013-02-14 23:45:00,43.3,29.9,30.11,WNW,299,3.8,6.9,59,0.00,,,0.00,WUHU21623XXSP,2013-02-15 05:45:00,
2013-02-14 23:51:00,43.2,29.8,30.11,WNW,292,0.0,6.9,59,0.00,,,0.00,WUHU21623XXSP,2013-02-15 05:51:00,
2013-02-14 23:56:00,43.0,29.1,30.11,NW,315,1.9,2.7,58,0.00,,,0.00,WUHU21623XXSP,2013-02-15 05:56:00,